This is the latest recevied weather packets stored in our database for station/object DL0BB-10. If no packets are shown the sender has not sent any weather packets the latest 10 day(s).
| Time | Temp. | Humidity | Pressure | Rain* | Wind** | Luminosity | Snow |
|---|---|---|---|---|---|---|---|
| 1788690600 | 26.11° C | 35% | 1025.8 hPa | - | - | - | - |
| 1788689700 | 26.67° C | 34% | 1026.1 hPa | - | - | - | - |
| 1788688800 | 25.56° C | 35% | 1026.4 hPa | - | - | - | - |
| 1788687900 | 25.56° C | 35% | 1026.5 hPa | - | - | - | - |
| 1788687033 | 26.11° C | 34% | 1026.3 hPa | - | - | - | - |
| 1788686099 | 26.11° C | 34% | 1026.5 hPa | - | - | - | - |
| 1788685199 | 25° C | 36% | 1026.6 hPa | - | - | - | - |
| 1788684304 | 25.56° C | 35% | 1026.8 hPa | - | - | - | - |
| 1788683431 | 26.11° C | 34% | 1026.9 hPa | - | - | - | - |
| 1788682504 | 25.56° C | 35% | 1026.8 hPa | - | - | - | - |
| 1788681640 | 25° C | 36% | 1026.8 hPa | - | - | - | - |
| 1788680704 | 25° C | 35% | 1026.9 hPa | - | - | - | - |
| 1788679804 | 25.56° C | 34% | 1026.6 hPa | - | - | - | - |
| 1788678904 | 25.56° C | 35% | 1026.7 hPa | - | - | - | - |
| 1788678003 | 25° C | 36% | 1027 hPa | - | - | - | - |
| 1788677102 | 25° C | 35% | 1026.8 hPa | - | - | - | - |
| 1788676202 | 25.56° C | 34% | 1027 hPa | - | - | - | - |
| 1788675302 | 25° C | 36% | 1027 hPa | - | - | - | - |
| 1788674402 | 25° C | 36% | 1027.2 hPa | - | - | - | - |
| 1788673502 | 25° C | 35% | 1027.1 hPa | - | - | - | - |
| 1788672601 | 26.11° C | 34% | 1027.1 hPa | - | - | - | - |
| 1788671701 | 25° C | 36% | 1027.1 hPa | - | - | - | - |
| 1788670801 | 25° C | 36% | 1027 hPa | - | - | - | - |
| 1788669900 | 25.56° C | 35% | 1026.9 hPa | - | - | - | - |
| 1788669000 | 26.11° C | 34% | 1026.7 hPa | - | - | - | - |
* Rain since midnight (hover to see other rain measurements)
** Current wind speed in m/s (hover to see current wind gust speed)